Location: Guilderland
(42.7045°N, 73.9115°W)
Time: 03:28:43
(UTC+00:00)

USA 234 - Pass Details

Date: 24 January 2020
Orbit: 1100 x 1107 km, 123.0° (Epoch: 09 February)

Event Time Altitude Azimuth Distance (km) Brightness Sun altitude
Rises 22:38:28 0° 128° (SE) 3,905 5.8 -7.7°
Reaches altitude 10° 22:40:56 10° 128° (SE) 2,950 5.2 -8.1°
Maximum altitude 22:47:28 88° 42° (NE) 1,107 3.3 -9.3°
Drops below altitude 10° 22:54:02 10° 312° (NW) 2,965 6.0 -10.4°
Sets 22:56:31 0° 312° (NW) 3,926 6.6 -10.9°
